Location: Воронеж
(51.6755°N, 39.2089°E)
Time: 07:36:51
(UTC+03:00)

ISS - Visible Passes

Search period start: 26 October 2020 00:00
Search period end: 05 November 2020 00:00
Orbit: 417 x 420 km, 51.6° (Epoch: 25 October)

Date Brightness Start Highest point End Pass type
(mag) Time Alt. Az. Time Alt. Az. Time Alt. Az.
26 Oct -2.1 05:34:11 12° SSW 05:36:48 30° SSE 05:39:49 10° E visible
27 Oct -1.8 04:48:44 21° SSE 04:49:11 22° SE 04:51:52 10° E visible
27 Oct -3.5 06:22:16 10° WSW 06:25:36 69° SSE 06:28:57 10° E visible
28 Oct -0.6 04:03:11 12° ESE 04:03:11 12° ESE 04:03:43 10° ESE visible
28 Oct -3.2 05:36:09 24° SW 05:37:53 54° SSE 05:41:12 10° E visible
29 Oct -2.7 04:50:30 40° SE 04:50:30 40° SE 04:53:24 10° E visible
29 Oct -3.8 06:23:28 10° W 06:26:51 89° S 06:30:14 10° E visible
30 Oct -0.7 04:04:47 15° E 04:04:47 15° E 04:05:32 10° E visible
30 Oct -3.8 05:37:44 34° WSW 05:39:05 81° S 05:42:27 10° E visible
31 Oct -3.0 04:51:59 51° ESE 04:51:59 51° ESE 04:54:41 10° E visible
31 Oct -3.8 06:24:56 11° W 06:28:06 90° NW 06:31:29 10° E visible
01 Nov -0.6 04:06:11 15° E 04:06:11 15° E 04:06:53 10° E visible
01 Nov -3.8 05:39:08 38° W 05:40:19 88° N 05:43:42 10° E visible
02 Nov -2.9 04:53:19 50° E 04:53:19 50° E 04:55:55 10° E visible
02 Nov -3.7 06:26:16 12° W 06:29:20 72° SSW 06:32:41 10° ESE visible
03 Nov -0.6 04:07:30 15° E 04:07:30 15° E 04:08:07 10° E visible
03 Nov -3.8 05:40:27 40° W 05:41:32 83° SSW 05:44:55 10° ESE visible
04 Nov -2.8 04:54:38 47° E 04:54:38 47° E 04:57:08 10° E visible
04 Nov -3.1 06:27:35 12° W 06:30:26 44° SSW 06:33:39 10° SE visible
